CW0029 Weather Reports


Display with metric or nautical units.
time (UTC)temp
F
wind
direction
speed
MPH
gust
MPH
rain 1hr
in
rain 24hr
in
rain mn
in
humidity
%
barometer
mb
20260503054404 76 291 0.0 0.0 0.00 0.00 0.00 85 1013.1
20260503053904 76 245 1.0 5.0 0.00 0.00 0.00 85 1013.1
20260503053405 77 196 2.0 6.0 0.00 0.00 0.00 85 1013.1
20260503052905 77 214 0.0 1.0 0.00 0.00 0.00 85 1013.7
20260503052405 77 253 0.0 0.0 0.00 0.00 0.00 85 1013.7
20260503051904 77 259 0.0 0.0 0.00 0.00 0.00 85 1014.0
20260503051405 77 210 0.0 1.0 0.00 0.00 0.00 84 1014.0
20260503050405 77 238 0.0 1.0 0.00 0.00 0.00 84 1014.2
20260503045904 77 265 0.0 0.0 0.00 0.00 0.00 84 1014.2
20260503045404 77 202 0.0 1.0 0.00 0.00 0.00 83 1014.2
20260503044905 77 267 0.0 1.0 0.00 0.00 0.00 82 1014.2
20260503044405 77 211 0.0 1.0 0.00 0.00 0.00 82 1014.3
20260503043904 78 196 0.0 1.0 0.00 0.00 0.00 82 1014.3
20260503043405 78 240 0.0 0.0 0.00 0.00 0.00 82 1014.1
20260503042905 78 260 1.0 3.0 0.00 0.00 0.00 82 1014.1
20260503042405 78 246 0.0 0.0 0.00 0.00 0.00 82 1014.1
20260503041904 78 205 0.0 0.0 0.00 0.00 0.00 82 1014.2
20260503041404 78 250 0.0 0.0 0.00 0.00 0.00 82 1014.2
20260503040405 78 300 0.0 1.0 0.00 0.00 0.00 82 1014.3
20260503035905 78 270 0.0 1.0 0.00 0.00 0.00 82 1014.3
20260503035405 78 244 0.0 0.0 0.00 0.00 0.00 83 1014.3
20260503034905 78 301 0.0 0.0 0.00 0.00 0.00 83 1014.3
20260503034405 78 270 0.0 0.0 0.00 0.00 0.00 83 1013.9
20260503033905 78 270 0.0 0.0 0.00 0.00 0.00 82 1013.9
20260503032404 78 287 0.0 0.0 0.00 0.00 0.00 82 1013.9
20260503031905 78 249 0.0 0.0 0.00 0.00 0.00 81 1013.8
20260503031404 78 283 0.0 0.0 0.00 0.00 0.00 81 1013.8
20260503030905 78 163 0.0 0.0 0.00 0.00 0.00 81 1013.9
20260503030405 78 271 0.0 0.0 0.00 0.00 0.00 81 1013.9
20260503025904 78 281 0.0 0.0 0.00 0.00 0.00 80 1013.9
20260503025405 79 330 0.0 0.0 0.00 0.00 0.00 80 1013.8
20260503023905 79 314 0.0 0.0 0.00 0.00 0.00 79 1013.9
20260503023405 79 164 0.0 0.0 0.00 0.00 0.00 79 1013.8
20260503022905 79 296 0.0 2.0 0.00 0.00 0.00 78 1013.8
20260503022405 80 272 0.0 6.0 0.00 0.00 0.00 78 1013.8
20260503021905 80 292 6.0 7.0 0.00 0.00 0.00 77 1013.8
20260503021405 80 306 3.0 5.0 0.00 0.00 0.00 76 1013.8
20260503020905 80 262 6.0 9.0 0.00 0.00 0.00 76 1013.6
20260503020404 81 289 7.0 10.0 0.00 0.00 0.00 74 1013.6
20260503015905 82 291 6.0 8.0 0.00 0.00 0.00 73 1013.6
20260503015405 82 270 3.0 9.0 0.00 0.00 0.00 72 1013.3
20260503014904 82 264 3.0 9.0 0.00 0.00 0.00 71 1013.3
20260503013905 83 239 4.0 6.0 0.00 0.00 0.00 70 1013.3
20260503013405 83 258 2.0 7.0 0.00 0.00 0.00 70 1013.1
20260503012905 83 285 3.0 8.0 0.00 0.00 0.00 69 1013.1
20260503012404 83 275 6.0 9.0 0.00 0.00 0.00 68 1013.1
20260503011905 83 218 5.0 6.0 0.00 0.00 0.00 68 1012.8
20260503011405 83 303 6.0 9.0 0.00 0.00 0.00 67 1012.8
20260503010904 84 151 5.0 7.0 0.00 0.00 0.00 66 1012.7
20260503010405 84 243 4.0 8.0 0.00 0.00 0.00 65 1012.7
20260503005905 84 251 4.0 8.0 0.00 0.00 0.00 65 1012.7
20260503005405 84 205 6.0 7.0 0.00 0.00 0.00 64 1012.6
20260503004404 85 202 4.0 6.0 0.00 0.00 0.00 62 1012.4
20260503003904 85 220 4.0 6.0 0.00 0.00 0.00 61 1012.4
20260503003405 85 249 4.0 6.0 0.00 0.00 0.00 60 1012.4
20260503002905 85 270 1.0 9.0 0.00 0.00 0.00 60 1012.4
20260503002404 86 221 5.0 9.0 0.00 0.00 0.00 59 1012.4
20260503001905 86 267 5.0 10.0 0.00 0.00 0.00 58 1012.2
20260503001405 86 180 5.0 9.0 0.00 0.00 0.00 57 1012.2
20260503000905 87 252 2.0 12.0 0.00 0.00 0.00 56 1011.8
20260503000404 87 345 2.0 9.0 0.00 0.00 0.00 55 1011.8
20260502235905 87 263 2.0 6.0 0.00 0.00 0.00 55 1011.8
20260502234904 88 248 1.0 7.0 0.00 0.00 0.00 53 1011.8
20260502234404 88 282 1.0 8.0 0.00 0.00 0.00 53 1011.5
20260502233906 88 251 1.0 6.0 0.00 0.00 0.00 52 1011.5
20260502233404 89 265 0.0 6.0 0.00 0.00 0.00 51 1011.4
20260502232905 89 248 3.0 6.0 0.00 0.00 0.00 50 1011.3
20260502232405 89 224 1.0 6.0 0.00 0.00 0.00 50 1011.3
20260502231905 90 270 1.0 5.0 0.00 0.00 0.00 50 1011.1
20260502231404 90 197 2.0 8.0 0.00 0.00 0.00 49 1011.1
20260502230904 90 216 1.0 7.0 0.00 0.00 0.00 49 1010.9
20260502230404 90 288 1.0 6.0 0.00 0.00 0.00 49 1010.9
20260502225404 91 267 2.0 6.0 0.00 0.00 0.00 48 1010.8
20260502224904 91 41 0.0 6.0 0.00 0.00 0.00 47 1010.8
20260502223904 91 244 3.0 8.0 0.00 0.00 0.00 46 1010.7
20260502223405 91 251 2.0 7.0 0.00 0.00 0.00 46 1010.7
20260502222905 92 222 3.0 8.0 0.00 0.00 0.00 46 1010.6
20260502221905 92 225 3.0 9.0 0.00 0.00 0.00 46 1010.5
20260502221404 92 245 2.0 9.0 0.00 0.00 0.00 45 1010.5
20260502220904 93 223 1.0 5.0 0.00 0.00 0.00 45 1010.6
20260502220405 94 276 7.0 13.0 0.00 0.00 0.00 43 1010.6
20260502215904 95 232 3.0 12.0 0.00 0.00 0.00 43 1010.6
20260502215404 95 218 5.0 12.0 0.00 0.00 0.00 43 1010.5
20260502213905 95 219 5.0 10.0 0.00 0.00 0.00 43 1010.4
20260502213404 95 307 5.0 7.0 0.00 0.00 0.00 42 1010.5
20260502212904 95 264 5.0 10.0 0.00 0.00 0.00 42 1010.5
20260502212405 95 248 8.0 13.0 0.00 0.00 0.00 42 1010.5
20260502211905 95 279 6.0 13.0 0.00 0.00 0.00 41 1010.4
20260502211405 96 248 5.0 12.0 0.00 0.00 0.00 41 1010.4
20260502210905 97 305 6.0 10.0 0.00 0.00 0.00 41 1010.3
20260502210404 96 242 6.0 13.0 0.00 0.00 0.00 41 1010.3
20260502204904 96 283 7.0 15.0 0.00 0.00 0.00 40 1010.4
20260502204404 96 323 6.0 15.0 0.00 0.00 0.00 41 1010.3
20260502203904 96 277 5.0 12.0 0.00 0.00 0.00 41 1010.3
20260502203404 96 291 8.0 10.0 0.00 0.00 0.00 40 1010.4
20260502202905 97 282 12.0 18.0 0.00 0.00 0.00 40 1010.4
20260502202404 96 270 7.0 12.0 0.00 0.00 0.00 41 1010.4
20260502201404 97 282 10.0 14.0 0.00 0.00 0.00 42 1010.6
20260502200904 97 272 7.0 14.0 0.00 0.00 0.00 40 1010.6
20260502195905 96 236 7.0 16.0 0.00 0.00 0.00 43 1010.6
20260502195405 97 237 5.0 10.0 0.00 0.00 0.00 43 1010.7
20260502194904 96 184 9.0 16.0 0.00 0.00 0.00 42 1010.7
20260502194405 96 281 8.0 13.0 0.00 0.00 0.00 44 1010.7
20260502193904 96 248 9.0 18.0 0.00 0.00 0.00 44 1010.7
20260502192904 98 284 12.0 15.0 0.00 0.00 0.00 42 1010.8
20260502192404 97 90 6.0 14.0 0.00 0.00 0.00 45 1010.8
20260502191904 97 270 10.0 17.0 0.00 0.00 0.00 43 1010.8
20260502191404 97 222 7.0 15.0 0.00 0.00 0.00 43 1010.8
20260502185904 97 211 10.0 14.0 0.00 0.00 0.00 45 1010.7
20260502185404 97 183 9.0 14.0 0.00 0.00 0.00 46 1010.8
20260502184904 96 262 11.0 14.0 0.00 0.00 0.00 46 1010.8
20260502184404 97 270 10.0 16.0 0.00 0.00 0.00 46 1010.9
20260502183905 96 221 6.0 18.0 0.00 0.00 0.00 47 1010.9
20260502183404 95 34 12.0 14.0 0.00 0.00 0.00 49 1011.0
20260502182904 95 254 9.0 16.0 0.00 0.00 0.00 49 1011.1
20260502181904 97 225 10.0 20.0 0.00 0.00 0.00 47 1011.2
20260502180905 96 238 7.0 13.0 0.00 0.00 0.00 50 1011.3
20260502180404 96 275 8.0 13.0 0.00 0.00 0.00 50 1011.3
20260502170404 93 234 6.0 10.0 0.00 0.00 0.00 59 1011.6
20260502163404 94 14 6.0 13.0 0.00 0.00 0.00 58 1011.9
20260502162904 92 242 10.0 13.0 0.00 0.00 0.00 59 1012.1
20260502162404 92 206 9.0 13.0 0.00 0.00 0.00 59 1012.1
20260502160904 92 229 6.0 18.0 0.00 0.00 0.00 58 1012.3
20260502160404 93 200 9.0 13.0 0.00 0.00 0.00 57 1012.3
20260502151404 91 232 6.0 10.0 0.00 0.00 0.00 62 1012.4
20260502150904 90 220 7.0 12.0 0.00 0.00 0.00 62 1012.3
20260502150404 90 202 6.0 8.0 0.00 0.00 0.00 63 1012.3
20260502123404 80 142 0.0 1.0 0.00 0.00 0.00 88 1012.2
20260502122904 80 137 0.0 0.0 0.00 0.00 0.00 88 1012.2
20260502122404 80 190 0.0 0.0 0.00 0.00 0.00 88 1012.2
20260502121904 80 196 0.0 0.0 0.00 0.00 0.00 88 1012.1
20260502121404 79 159 0.0 0.0 0.00 0.00 0.00 88 1012.1
20260502120904 78 243 0.0 0.0 0.00 0.00 0.00 90 1012.2
20260502120404 78 184 0.0 0.0 0.00 0.00 0.00 90 1012.2
20260502115904 77 189 0.0 0.0 0.00 0.00 0.00 91 1012.2
20260502114404 76 180 0.0 0.0 0.00 0.00 0.00 93 1012.2
20260502113904 76 192 0.0 0.0 0.00 0.00 0.00 93 1012.2
20260502113403 75 193 0.0 0.0 0.00 0.00 0.00 93 1012.3
20260502112904 75 177 0.0 0.0 0.00 0.00 0.00 94 1012.4
20260502111904 74 180 0.0 0.0 0.00 0.00 0.00 98 1012.4
20260502110903 73 165 0.0 0.0 0.00 0.00 0.00 99 1012.3
20260502105904 72 202 0.0 0.0 0.00 0.00 0.00 99 1012.3
20260502105404 72 202 0.0 0.0 0.00 0.00 0.00 99 1012.2
20260502104904 72 167 0.0 0.0 0.00 0.00 0.00 99 1012.2
20260502104404 72 190 0.0 0.0 0.00 0.00 0.00 99 1012.1
20260502103404 72 171 0.0 0.0 0.00 0.00 0.00 99 1012.1
20260502102903 72 199 0.0 0.0 0.00 0.00 0.00 99 1012.1
20260502102404 72 180 0.0 0.0 0.00 0.00 0.00 99 1012.1
20260502101904 72 180 0.0 0.0 0.00 0.00 0.00 99 1012.1
20260502101404 72 191 0.0 0.0 0.00 0.00 0.00 99 1012.1
20260502100403 72 202 0.0 0.0 0.00 0.00 0.00 99 1012.1
20260502091403 72 158 0.0 0.0 0.00 0.00 0.00 98 1012.3
20260502090904 72 137 0.0 0.0 0.00 0.00 0.00 98 1012.1
20260502090403 73 158 0.0 0.0 0.00 0.00 0.00 98 1012.1
20260502071403 73 281 0.0 0.0 0.00 0.00 0.00 94 1012.2
20260502070903 73 282 0.0 0.0 0.00 0.00 0.00 94 1012.3
20260502065904 73 255 0.0 0.0 0.00 0.00 0.00 93 1012.3
20260502065404 73 202 0.0 0.0 0.00 0.00 0.00 93 1012.5
20260502064904 73 264 0.0 0.0 0.00 0.00 0.00 93 1012.5
20260502063904 73 211 0.0 0.0 0.00 0.00 0.00 91 1012.5